Flag for Norway Weather past 2 weeks in Spydeberg, Norway

Now
57 °F

Rain showers. Broken clouds.


Feels Like: 55 °F
Forecast: 52 / 69 °F
Wind: 8 mph from East

Location: Rygge

Current Time: Jul 29, 2015 at 8:18:19 PM

Latest Report: Jul 29, 2015 at 7:50 PM


Visibility: 4 mi

Pressure: 29.42 "Hg

Humidity: 94%

Dew point: 55 °F

Location of SpydebergLocation

Historic Weather in Spydeberg — Graph

°F

Spydeberg temperature yesterday

Maximum temperature yesterday: 63 °F (at 2:20 PM)
Minimum temperature yesterday: 55 °F (at 12:50 AM)
Average temperature yesterday: 58 °F

Past Weeks' High & Low Weather Summary

 TemperatureHumidityPressure
High72 °F (Jul 20, 2:20 PM)100% (Jul 15, 1:20 AM)30.07 "Hg (Jul 15, 1:20 AM)
Low48 °F (Jul 17, 4:50 AM)35% (Jul 23, 6:50 PM)29.39 "Hg (Jul 26, 10:20 AM)
Average59 °F76%29.69 "Hg
* Reported Jul 14 6:20 PM — Jul 29 6:50 PM, Spydeberg, Weather by CustomWeather, © 2015

Note: Actual official high and low records may vary slightly from our data, if they occured in-between our weather recording intervals... More about our weather records

Advertising

Spydeberg weather history for previous 24 hours

 ConditionsComfort  
Time TempWeatherWind HumidityBarometerVisibility
6:50 PM
Wed, Jul 29
59 °FDrizzle. Broken clouds.6 mph94%29.42 "HgN/A
6:20 PM57 °FSprinkles. Broken clouds.5 mph94%29.42 "HgN/A
5:50 PM57 °FRain. Partly sunny.10 mph88%29.42 "Hg5 mi
5:20 PM59 °FLight rain. Broken clouds.8 mph94%29.42 "HgN/A
4:50 PM59 °FLight rain. Broken clouds.2 mph94%29.42 "HgN/A
4:20 PM57 °FLight rain. Mostly cloudy.7 mph94%29.42 "HgN/A
3:50 PM59 °FRain. Cloudy.7 mph94%29.42 "Hg4 mi
3:20 PM61 °FScattered clouds.8 mph88%29.42 "HgN/A
2:50 PM61 °FDrizzle. Broken clouds.6 mph94%29.42 "Hg5 mi
2:20 PM59 °FPartly sunny.8 mph94%29.39 "HgN/A
1:50 PM59 °FRain. Broken clouds.9 mph94%29.39 "Hg6 mi
1:20 PM59 °FLight rain. Broken clouds.9 mph94%29.39 "Hg6 mi
12:50 PM59 °FDrizzle. Broken clouds.12 mph94%29.39 "HgN/A
12:20 PM59 °FLight rain. Broken clouds.10 mph94%29.39 "HgN/A
11:50 AM59 °FPartly sunny.10 mph94%29.39 "HgN/A
11:20 AM59 °FBroken clouds.9 mph94%29.39 "HgN/A
10:50 AM57 °FLight rain. Partly sunny.10 mph94%29.42 "Hg5 mi
10:20 AM57 °FLight rain. Partly sunny.12 mph94%29.42 "Hg5 mi
9:50 AM57 °FLight rain. Partly sunny.10 mph94%29.42 "HgN/A
9:20 AM57 °FLight rain. Partly sunny.10 mph94%29.42 "Hg6 mi
8:47 AM57 °FLight rain. Partly sunny.9 mph94%29.42 "Hg6 mi
8:20 AM57 °FDrizzle. Partly sunny.9 mph94%29.42 "HgN/A
7:50 AM57 °FLight rain. Partly sunny.8 mph94%29.42 "HgN/A
7:20 AM55 °FLight rain. Partly sunny.8 mph100%29.42 "Hg4 mi
6:50 AM55 °FLight rain. Partly sunny.8 mph100%29.42 "Hg3 mi
6:20 AM55 °FRain. Partly sunny.9 mph100%29.42 "Hg2 mi
5:50 AM55 °FRain. Mostly cloudy.9 mph100%29.42 "Hg3 mi
4:50 AM55 °FRain. Partly cloudy.7 mph100%29.42 "Hg2 mi
4:20 AM55 °FRain. Mostly cloudy.8 mph100%29.42 "Hg3 mi
3:50 AM55 °FRain. Overcast.9 mph100%29.45 "Hg2 mi
3:20 AM55 °FLight rain. Mostly cloudy.8 mph100%29.45 "Hg3 mi
2:50 AM55 °FHeavy rain. Partly cloudy.9 mph100%29.45 "Hg4 mi
2:20 AM57 °FLight rain. Passing clouds.9 mph94%29.45 "HgN/A
1:50 AM55 °FOvercast.10 mph100%29.45 "HgN/A
1:20 AM55 °FPartly cloudy.10 mph94%29.45 "HgN/A
12:50 AM55 °FOvercast.10 mph100%29.47 "HgN/A
12:20 AM55 °FPassing clouds.9 mph94%29.47 "HgN/A
11:50 PM
Tue, Jul 28
55 °FPassing clouds.9 mph94%29.47 "HgN/A
11:20 PM55 °FLight rain. Passing clouds.8 mph94%29.47 "HgN/A
10:50 PM55 °FRain. Broken clouds.9 mph94%29.47 "Hg4 mi
10:20 PM57 °FDrizzle. Partly sunny.10 mph88%29.50 "HgN/A
9:50 PM57 °FBroken clouds.10 mph88%29.50 "HgN/A
9:20 PM59 °FPartly sunny.10 mph82%29.50 "HgN/A
8:50 PM59 °FPartly sunny.10 mph82%29.50 "HgN/A
8:20 PM59 °FSprinkles. Partly sunny.10 mph77%29.50 "HgN/A
Weather by CustomWeather, © 2015

See weather overviewHow to use our weather pages